Weather History for Peru, IN

Change the Weather History Date:

Friday, September 6, 2013

  Actual Average Record
Temperature  
Mean Temperature 67 °F -  
Max Temperature 82 °F 77 °F 93 °F (1998)
Min Temperature 52 °F 57 °F 45 °F (2011)
Cooling Degree Days 2    
Growing Degree Days 17 (Base 50)    
Moisture  
Dew Point 53 °F    
Average Humidity 58    
Maximum Humidity 88    
Minimum Humidity 34    
Precipitation  
Precipitation 0.00 in - - ()
Sea Level Pressure  
Sea Level Pressure 30.19 in    
Wind  
Wind Speed 5 mph (SE)    
Max Wind Speed 10 mph    
Max Gust Speed -    
Visibility 10 miles    
Events      
Averages and records for this station are not official NWS values.
T = Trace of Precipitation, MM = Missing Value Source: NWS Daily Summary

Daily Weather History Graph

Daily Weather History Graph

Search for Another Location

Airport:

Trip Planner

Search our weather history database for the weather conditions in past years. The results will help you decide how hot, cold, wet, or windy it might be!

Date:

Astronomy

Sep. 06, 2013 Rise Set
Actual Time 7:16 AM EDT 8:08 PM EDT
Civil Twilight 6:48 AM EDT 8:35 PM EDT
Nautical Twilight 6:15 AM EDT 9:08 PM EDT
Astronomical Twilight 5:41 AM EDT 9:42 PM EDT
Moon 8:29 AM EDT (9/6) 8:31 PM EDT (9/6)
Length of Visible Light 13h 46m
Length of Day
12h 51m
New Moon, 1% of the Moon is Illuminated
Sep 6
New Moon
Sep 12
First Quarter
Sep 19
Full
Sep 26
Last Quarter
Oct 4
New

Hourly Weather History & Observations

Time (EDT) Temp. Heat Index Dew Point Humidity Pressure Visibility Wind Dir Wind Speed Gust Speed Precip Events Conditions
12:58 AM 59.9 °F - 46.4 °F 61% 30.22 in 10.0 mi East 5.8 mph - N/A   Clear
1:58 AM 58.1 °F - 46.6 °F 65% 30.23 in 10.0 mi East 5.8 mph - N/A   Clear
2:58 AM 55.2 °F - 47.3 °F 75% 30.23 in 10.0 mi ESE 4.6 mph - N/A   Clear
3:58 AM 54.5 °F - 47.7 °F 78% 30.23 in 10.0 mi East 4.6 mph - N/A   Clear
4:58 AM 53.2 °F - 48.2 °F 83% 30.23 in 10.0 mi ESE 4.6 mph - N/A   Clear
5:58 AM 52.3 °F - 48.9 °F 88% 30.25 in 10.0 mi ESE 4.6 mph - N/A   Clear
6:58 AM 52.3 °F - 48.9 °F 88% 30.25 in 10.0 mi East 4.6 mph - N/A   Clear
7:58 AM 53.2 °F - 49.6 °F 88% 30.26 in 10.0 mi East 6.9 mph - N/A   Clear
8:58 AM 57.7 °F - 51.8 °F 81% 30.26 in 10.0 mi ESE 9.2 mph - N/A   Clear
9:58 AM 63.1 °F - 53.1 °F 70% 30.25 in 10.0 mi SSE 10.4 mph - N/A   Clear
10:30 AM 66.2 °F - 53.6 °F 64% 30.23 in 10.0 mi SSE 8.1 mph - N/A   Clear
10:58 AM 68.0 °F - 52.7 °F 58% 30.25 in 10.0 mi SSE 5.8 mph - N/A   Clear
11:58 AM 73.0 °F - 50.9 °F 46% 30.23 in 10.0 mi Variable 6.9 mph - N/A   Clear
12:58 PM 76.6 °F - 48.0 °F 36% 30.22 in 10.0 mi Variable 2.3 mph - N/A   Clear
12:59 PM 77.0 °F - 46.4 °F 34% 30.22 in 10.0 mi Variable 1.2 mph - N/A   Clear
1:03 PM 77.0 °F - 48.2 °F 36% 30.22 in 10.0 mi SSE 4.6 mph - N/A   Light Drizzle
1:05 PM 77.0 °F - 48.2 °F 36% 30.21 in 10.0 mi Variable 3.5 mph - N/A   Light Drizzle
1:58 PM 78.8 °F - 53.6 °F 42% 30.19 in 10.0 mi SE 4.6 mph - N/A   Clear
2:50 PM 80.6 °F 80.3 °F 53.6 °F 39% 30.18 in 9.0 mi Calm Calm - N/A   Light Drizzle
2:53 PM 80.6 °F 80.3 °F 53.6 °F 39% 30.18 in 9.0 mi Variable 3.5 mph - N/A   Clear
2:58 PM 79.9 °F - 53.4 °F 40% 30.18 in 10.0 mi Variable 5.8 mph - 0.00 in   Clear
3:10 PM 80.6 °F 80.3 °F 53.6 °F 39% 30.17 in 10.0 mi Calm Calm - N/A   Clear
3:41 PM 80.6 °F 80.5 °F 55.4 °F 42% 30.16 in 10.0 mi East 3.5 mph - N/A   Clear
3:58 PM 81.5 °F 81.3 °F 56.5 °F 42% 30.15 in 10.0 mi Variable 3.5 mph - N/A   Clear
4:15 PM 82.4 °F 82.0 °F 57.2 °F 42% 30.14 in 10.0 mi South 4.6 mph - N/A   Clear
4:58 PM 81.0 °F 81.3 °F 58.8 °F 47% 30.13 in 10.0 mi Calm Calm - N/A   Clear
5:58 PM 81.0 °F 81.5 °F 59.4 °F 48% 30.12 in 10.0 mi Calm Calm - N/A   Clear
6:58 PM 80.8 °F 81.6 °F 61.0 °F 51% 30.12 in 10.0 mi SSW 3.5 mph - N/A   Clear
7:58 PM 76.3 °F - 61.9 °F 61% 30.10 in 10.0 mi ESE 3.5 mph - N/A   Clear
8:43 PM 71.6 °F - 62.6 °F 73% 30.10 in 2.0 mi ESE 5.8 mph - N/A   Haze
8:58 PM 70.3 °F - 61.3 °F 73% 30.11 in 10.0 mi ESE 4.6 mph - N/A   Clear
9:58 PM 68.4 °F - 58.6 °F 71% 30.10 in 10.0 mi SE 3.5 mph - N/A   Clear
10:58 PM 65.8 °F - 57.9 °F 76% 30.10 in 10.0 mi SE 4.6 mph - N/A   Clear
11:58 PM 64.4 °F - 56.8 °F 76% 30.08 in 10.0 mi South 5.8 mph - N/A   Clear